User: anonymous
Location: Onan Observatory
(44.8103°N, 93.9397°W)
Time: 03:37:59
(UTC-05:00)
Language:

Iridium 90 - Orbit

View from above orbital plane
View from above orbital plane
View from above satellite
View from above satellite

Ground track
Ground track

The orbit data is extracted from the following two-line orbital elements,

1 27373U 02005B   14110.47199594  .00000237  00000-0  65010-4 0  2973
2 27373 086.4444 112.3241 0001264 182.9674 177.1520 14.42951909644986
Epoch (UTC): 20 April 2014 11:19:40
Eccentricity: 0.0001264
inclination: 86.4444°
perigee height: 748 km
apogee height: 749 km
right ascension of ascending node: 112.3241°
argument of perigee: 182.9674°
revolutions per day: 14.42951909
mean anomaly at epoch: 177.1520°
orbit number at epoch: 64498

The dashed part of the orbit path shows where the satellite is in the earth's shadow,  

DLR